Location: Unspecified
(0.0000°N, 0.0000°E)
Time: 12:00:21
(UTC+00:00)

Tiros 1 - Visible Passes

Search period start: 21 August 2017 00:00
Search period end: 31 August 2017 00:00
Orbit: 631 x 664 km, 48.4° (Epoch: 21 August)

Date Brightness Start Highest point End Pass type
(mag) Time Alt. Az. Time Alt. Az. Time Alt. Az.
27 Aug 9.0 19:19:35 10° N 19:21:35 16° NE 19:21:35 16° NE visible
28 Aug 8.0 19:44:14 10° NNW 19:47:22 39° N 19:47:22 39° N visible
29 Aug 8.9 18:30:10 10° NNE 18:32:51 15° NE 18:35:32 10° E visible
29 Aug 8.9 20:10:34 10° WNW 20:13:17 29° W 20:13:17 29° W visible
30 Aug 7.3 18:54:34 10° NNW 18:59:02 50° NE 19:01:34 24° ESE visible
30 Aug 10.2 20:39:14 10° WSW 20:39:18 10° WSW 20:39:18 10° WSW visible
